TimeMST,TemperatureF,Dew PointF,Humidity,Sea Level PressureIn,VisibilityMPH,Wind Direction,Wind SpeedMPH,Gust SpeedMPH,PrecipitationIn,Events,Conditions,WindDirDegrees,DateUTC
12:54 AM,25.0,17.1,72,30.12,10.0,ESE,4.6,-,N/A,,Clear,120,2013-01-23 07:54:00
1:54 AM,19.0,14.0,81,30.15,10.0,Calm,Calm,-,N/A,,Clear,0,2013-01-23 08:54:00
2:54 AM,21.0,16.0,81,30.14,10.0,SW,3.5,-,N/A,,Clear,220,2013-01-23 09:54:00
3:54 AM,19.0,14.0,81,30.14,10.0,Calm,Calm,-,N/A,,Clear,0,2013-01-23 10:54:00
4:54 AM,19.0,14.0,81,30.17,10.0,Calm,Calm,-,N/A,,Clear,0,2013-01-23 11:54:00
5:54 AM,19.9,16.0,85,30.18,10.0,Calm,Calm,-,N/A,,Clear,0,2013-01-23 12:54:00
6:54 AM,19.9,16.0,85,30.21,10.0,Calm,Calm,-,N/A,,Clear,0,2013-01-23 13:54:00
7:54 AM,21.0,15.1,78,30.19,10.0,ESE,5.8,-,N/A,,Clear,120,2013-01-23 14:54:00
8:54 AM,19.9,14.0,78,30.18,10.0,ESE,8.1,-,N/A,,Clear,110,2013-01-23 15:54:00
9:54 AM,19.9,12.9,74,30.19,10.0,ESE,15.0,-,N/A,,Clear,110,2013-01-23 16:54:00
10:54 AM,19.9,12.9,74,30.17,10.0,ESE,15.0,-,N/A,,Clear,110,2013-01-23 17:54:00
11:54 AM,21.9,12.9,68,30.15,10.0,ESE,16.1,-,N/A,,Clear,120,2013-01-23 18:54:00
12:54 PM,21.0,14.0,74,30.13,10.0,ESE,12.7,-,N/A,,Clear,120,2013-01-23 19:54:00
1:54 PM,21.9,14.0,72,30.12,10.0,ESE,17.3,-,N/A,,Clear,120,2013-01-23 20:54:00
2:54 PM,24.1,15.1,69,30.09,10.0,ESE,20.7,-,N/A,,Clear,120,2013-01-23 21:54:00
3:54 PM,23.0,15.1,72,30.08,10.0,ESE,18.4,-,N/A,,Clear,110,2013-01-23 22:54:00
4:54 PM,23.0,15.1,72,30.07,10.0,ESE,16.1,-,N/A,,Clear,110,2013-01-23 23:54:00
5:54 PM,23.0,15.1,72,30.04,10.0,ESE,11.5,-,N/A,,Clear,120,2013-01-24 00:54:00
6:54 PM,23.0,15.1,72,30.02,10.0,ESE,12.7,-,N/A,,Scattered Clouds,120,2013-01-24 01:54:00
7:54 PM,23.0,16.0,74,29.99,10.0,ESE,10.4,-,N/A,,Scattered Clouds,110,2013-01-24 02:54:00
8:54 PM,28.9,18.0,64,29.95,10.0,Variable,3.5,-,N/A,,Overcast,0,2013-01-24 03:54:00
9:54 PM,43.0,19.9,40,29.90,10.0,SW,20.7,-,N/A,,Scattered Clouds,220,2013-01-24 04:54:00
10:54 PM,45.0,19.9,37,29.88,10.0,SW,26.5,-,N/A,,Clear,220,2013-01-24 05:54:00
11:54 PM,44.1,24.1,45,29.85,10.0,SW,19.6,-,N/A,,Clear,220,2013-01-24 06:54:00